This demonstration page uses our WeatherBlox Daily Observations layout. Learn more.

Left ArrowRight Arrow

Hourly Observations for August 29, 2020

Temp ( °F °C ) Dew Point ( °F °C ) Humidity (%) Winds ( mph kmh ) Pressure ( in mb ) Visibility ( mi km ) Precip ( " mm )
12:53 am 00:53 Mostly Clear 72 22.2 69 20.6 91 91 N N/A 29.72 1006 10 16.0934 N/A
1:39 am 01:39 Mostly Cloudy 71 21.7 69 20.6 94 94 N N/A 29.71 1006 10 16.0934 N/A
1:53 am 01:53 Cloudy 71 21.7 70 21.1 96 96 N N/A 29.71 1006 10 16.0934 N/A
2:25 am 02:25 Partly Cloudy 70 21.1 69 20.6 97 97 N N/A 29.69 1006 10 16.0934 N/A
2:53 am 02:53 Clear 69 20.6 68 20 96 96 N N/A 29.69 1006 10 16.0934 N/A
3:53 am 03:53 Clear with Mist and Fog 67 19.4 67 19.4 100 100 N N/A 29.67 1005 2.5 4.02335 N/A
4:01 am 04:01 Clear with Mist and Fog 67 19.4 67 19.4 100 100 N N/A 29.68 1005 6 9.65604 N/A
4:17 am 04:17 Mostly Cloudy 68 20 67 19.4 96 96 N N/A 29.68 1005 9 14.48406 N/A
4:53 am 04:53 Cloudy 69 20.6 68 20 96 96 N N/A 29.67 1005 9 14.48406 N/A
5:53 am 05:53 Cloudy 71 21.7 69 20.6 94 94 W 3 6 29.68 1005 10 16.0934 N/A
6:03 am 06:03 Cloudy 71 21.7 69 20.6 94 94 W 5 7 29.68 1005 10 16.0934 N/A
6:53 am 06:53 Cloudy 71 21.7 69 20.6 94 94 VRB 5 7 29.7 1006 10 16.0934 N/A
7:26 am 07:26 Mostly Cloudy 70 21.1 68 20 93 93 N N/A 29.69 1006 10 16.0934 N/A
7:53 am 07:53 Mostly Cloudy 71 21.7 69 20.6 94 94 WNW 5 7 29.71 1006 10 16.0934 N/A
7:57 am 07:57 Mostly Cloudy 71 21.7 69 20.6 94 94 WNW 5 7 29.7 1006 10 16.0934 N/A
8:33 am 08:33 Cloudy 72 22.2 70 21.1 94 94 N N/A 29.71 1006 10 16.0934 N/A
8:53 am 08:53 Cloudy 72 22.2 70 21.1 94 94 WSW 5 7 29.72 1006 10 16.0934 N/A
9:19 am 09:19 Cloudy 74 23.3 71 21.7 91 91 VRB 5 7 29.72 1006 10 16.0934 N/A
9:53 am 09:53 Cloudy 75 23.9 70 21.1 84 84 VRB 5 7 29.73 1007 10 16.0934 N/A
10:20 am 10:20 Cloudy 75 23.9 70 21.1 84 84 VRB 5 7 29.73 1007 10 16.0934 N/A
10:50 am 10:50 Cloudy 75 24 72 22 89 89 VRB 6 9 29.73 1007 10 16.0934 N/A
10:53 am 10:53 Cloudy 76 24.4 71 21.7 85 85 W 7 11 29.74 1007 10 16.0934 N/A
11:53 am 11:53 Mostly Cloudy 80 26.7 71 21.7 74 74 WSW 6 9 29.73 1007 10 16.0934 N/A
12:17 pm 12:17 Mostly Cloudy 81 27.2 68 20 65 65 WNW 10 17 29.73 1007 10 16.0934 N/A
12:53 pm 12:53 Partly Cloudy 83 28.3 68 20 61 61 W 12 19 29.75 1007 10 16.0934 N/A
1:53 pm 13:53 Mostly Cloudy 83 28.3 66 18.9 57 57 W 9 15 29.75 1008 10 16.0934 N/A
2:53 pm 14:53 Mostly Cloudy 84 28.9 65 18.3 53 53 WNW 13 20 29.76 1008 10 16.0934 N/A
3:53 pm 15:53 Mostly Sunny 84 28.9 62 16.7 48 48 WNW 17 28 29.77 1008 10 16.0934 N/A
4:53 pm 16:53 Sunny 84 28.9 61 16.1 46 46 WNW 17 28 29.76 1008 10 16.0934 N/A
5:53 pm 17:53 Mostly Sunny 84 28.9 61 16.1 46 46 NW 14 22 29.75 1008 10 16.0934 N/A
6:53 pm 18:53 Partly Cloudy 81 27.2 63 17.2 54 54 WNW 10 17 29.76 1008 10 16.0934 N/A
7:53 pm 19:53 Sunny 78 25.6 63 17.2 60 60 NW 7 11 29.78 1009 10 16.0934 N/A
8:53 pm 20:53 Clear 77 25 61 16.1 58 58 NNW 7 11 29.8 1009 10 16.0934 N/A
9:53 pm 21:53 Clear 74 23.3 60 15.6 62 62 NNW 6 9 29.82 1010 10 16.0934 N/A
10:53 pm 22:53 Clear 69 20.6 59 15 70 70 NNW 5 7 29.83 1010 10 16.0934 N/A
11:53 pm 23:53 Clear 68 20 58 14.4 70 70 N 5 7 29.85 1011 10 16.0934 N/A

Powered by AerisWeather